| time (UTC) | temp F | wind direction | speed MPH | gust MPH | rain 1hr in | rain 24hr in | rain mn in | humidity % | barometer mb |
| 20260504191538 | 76 | 323 | 0.0 | 6.0 | 0.00 | 0.00 | 0.00 | 51 | 1010.5 |
| 20260504190030 | 76 | 304 | 0.0 | 5.0 | 0.00 | 0.00 | 0.00 | 56 | 1010.5 |
| 20260504184528 | 75 | 5 | 1.0 | 3.0 | 0.00 | 0.00 | 0.00 | 50 | 1010.6 |
| 20260504183025 | 74 | 298 | 0.0 | 6.0 | 0.00 | 0.00 | 0.00 | 52 | 1010.6 |
| 20260504181522 | 73 | 15 | 1.0 | 5.0 | 0.00 | 0.00 | 0.00 | 53 | 1010.6 |
| 20260504180017 | 73 | 350 | 0.0 | 4.0 | 0.00 | 0.00 | 0.00 | 55 | 1010.6 |
| 20260504174512 | 72 | 348 | 0.0 | 3.0 | 0.00 | 0.00 | 0.00 | 57 | 1010.6 |
| 20260504173009 | 71 | 340 | 0.0 | 4.0 | 0.00 | 0.00 | 0.00 | 56 | 1010.7 |
| 20260504171506 | 69 | 344 | 0.0 | 2.0 | 0.00 | 0.00 | 0.00 | 60 | 1010.7 |
| 20260504081537 | 51 | 0.0 | 0.0 | 0.00 | 0.00 | 0.00 | 78 | 1009.9 | |
| 20260504044535 | 57 | 0.0 | 0.0 | 0.00 | 0.00 | 0.00 | 70 | 1010.0 | |
| 20260504043030 | 58 | 0.0 | 0.0 | 0.00 | 0.00 | 0.00 | 68 | 1009.9 | |
| 20260504041525 | 59 | 0.0 | 0.0 | 0.00 | 0.00 | 0.00 | 66 | 1009.9 | |
| 20260504040021 | 60 | 0.0 | 0.0 | 0.00 | 0.00 | 0.00 | 64 | 1009.9 | |
| 20260504034517 | 61 | 0.0 | 0.0 | 0.00 | 0.00 | 0.00 | 63 | 1009.8 | |
| 20260504033013 | 62 | 0.0 | 0.0 | 0.00 | 0.00 | 0.00 | 62 | 1009.8 | |
| 20260504031507 | 64 | 0.0 | 0.0 | 0.00 | 0.00 | 0.00 | 61 | 1009.7 | |
| 20260504030003 | 65 | 213 | 0.0 | 0.0 | 0.00 | 0.00 | 0.00 | 61 | 1009.8 |
| 20260504024502 | 66 | 209 | 0.0 | 0.0 | 0.00 | 0.00 | 0.00 | 61 | 1009.8 |
| 20260504023002 | 67 | 204 | 0.0 | 0.0 | 0.00 | 0.00 | 0.00 | 60 | 1009.8 |
| 20260504021600 | 68 | 311 | 0.0 | 0.0 | 0.00 | 0.00 | 0.00 | 58 | 1009.9 |
| 20260504020058 | 70 | 350 | 0.0 | 0.0 | 0.00 | 0.00 | 0.00 | 58 | 1010.1 |
| 20260504014605 | 71 | 350 | 0.0 | 0.0 | 0.00 | 0.00 | 0.00 | 54 | 1010.1 |
| 20260504013058 | 72 | 241 | 0.0 | 2.0 | 0.00 | 0.00 | 0.00 | 52 | 1010.3 |
| 20260504011554 | 74 | 306 | 0.0 | 3.0 | 0.00 | 0.00 | 0.00 | 49 | 1010.5 |
| 20260504010100 | 76 | 240 | 2.0 | 8.0 | 0.00 | 0.00 | 0.00 | 50 | 1010.6 |
| 20260504004550 | 78 | 317 | 0.0 | 7.0 | 0.00 | 0.00 | 0.00 | 46 | 1010.7 |
| 20260504003053 | 80 | 289 | 1.0 | 6.0 | 0.00 | 0.00 | 0.00 | 43 | 1010.8 |
| 20260504001548 | 80 | 248 | 1.0 | 5.0 | 0.00 | 0.00 | 0.00 | 44 | 1010.9 |
| 20260504000112 | 81 | 331 | 2.0 | 9.0 | 0.00 | 0.00 | 0.00 | 45 | 1011.1 |
| 20260503234551 | 81 | 326 | 1.0 | 6.0 | 0.00 | 0.00 | 0.00 | 45 | 1011.2 |
| 20260503233038 | 80 | 250 | 0.0 | 9.0 | 0.00 | 0.00 | 0.00 | 44 | 1011.3 |
| 20260503231536 | 80 | 308 | 2.0 | 8.0 | 0.00 | 0.00 | 0.00 | 47 | 1011.6 |
| 20260503230033 | 80 | 245 | 0.0 | 9.0 | 0.00 | 0.00 | 0.00 | 51 | 1011.7 |
| 20260503224532 | 79 | 278 | 1.0 | 9.0 | 0.00 | 0.00 | 0.00 | 46 | 1011.9 |
| 20260503223037 | 80 | 355 | 0.0 | 10.0 | 0.00 | 0.00 | 0.00 | 43 | 1012.1 |
| 20260503221530 | 79 | 270 | 0.0 | 9.0 | 0.00 | 0.00 | 0.00 | 50 | 1012.2 |
| 20260503220025 | 79 | 342 | 0.0 | 7.0 | 0.00 | 0.00 | 0.00 | 45 | 1012.4 |
| 20260503214523 | 79 | 265 | 3.0 | 9.0 | 0.00 | 0.00 | 0.00 | 43 | 1012.6 |
| 20260503213019 | 78 | 284 | 2.0 | 11.0 | 0.00 | 0.00 | 0.00 | 45 | 1012.6 |
| 20260503211517 | 78 | 274 | 0.0 | 11.0 | 0.00 | 0.00 | 0.00 | 51 | 1012.8 |
| 20260503210013 | 77 | 271 | 0.0 | 8.0 | 0.00 | 0.00 | 0.00 | 53 | 1013.0 |
| 20260503204511 | 76 | 235 | 4.0 | 12.0 | 0.00 | 0.00 | 0.00 | 48 | 1013.2 |
| 20260503203018 | 76 | 13 | 2.0 | 9.0 | 0.00 | 0.00 | 0.00 | 54 | 1013.5 |
| 20260503201507 | 75 | 273 | 1.0 | 7.0 | 0.00 | 0.00 | 0.00 | 52 | 1013.6 |
| 20260503200006 | 75 | 254 | 1.0 | 6.0 | 0.00 | 0.00 | 0.00 | 57 | 1013.7 |
| 20260503194507 | 75 | 216 | 1.0 | 11.0 | 0.00 | 0.00 | 0.00 | 55 | 1013.9 |
| 20260503193007 | 76 | 267 | 4.0 | 13.0 | 0.00 | 0.00 | 0.00 | 50 | 1013.9 |